This demonstration page uses our WeatherBlox Daily Observations layout. Learn more.

Left ArrowRight Arrow

47.50024, -111.30081

Hourly Observations for January 5, 2018

Temp ( °F °C ) Dew Point ( °F °C ) Humidity (%) Winds ( mph kmh ) Pressure ( in mb ) Visibility ( mi km ) Precip ( " mm )
12:53 am 00:53 Mostly Cloudy 36 2.2 26 -3.3 67 67 SSW 16 26 30.11 1020 10 16 0.00 0.00
1:53 am 01:53 Partly Cloudy 36 2.2 26 -3.3 67 67 SSW 16 26 30.10 1019 10 16 0.00 0.00
2:53 am 02:53 Mostly Clear 36 2.2 26 -3.3 67 67 SSW 16 26 30.11 1020 10 16 0.00 0.00
3:53 am 03:53 Mostly Cloudy 37 2.8 27 -2.8 67 67 SSW 17 28 30.12 1020 10 16 0.00 0.00
4:53 am 04:53 Clear 37 2.8 27 -2.8 67 67 SSW 18 30 30.12 1020 10 16 0.00 0.00
5:53 am 05:53 Mostly Clear 36 2.2 27 -2.8 70 70 SW 16 26 30.13 1020 10 16 0.00 0.00
6:53 am 06:53 Clear 37 2.8 26 -3.3 65 65 SW 17 28 30.12 1020 10 16 0.00 0.00
7:53 am 07:53 Cloudy 36 2.2 27 -2.8 70 70 SW 18 30 30.12 1020 10 16 0.00 0.00
8:53 am 08:53 Mostly Cloudy 37 2.8 27 -2.8 67 67 SSW 17 28 30.11 1020 10 16 0.00 0.00
9:53 am 09:53 Sunny 37 2.8 28 -2.2 70 70 SSW 20 31 30.13 1020 10 16 0.00 0.00
10:53 am 10:53 Sunny 39 3.9 29 -1.7 67 67 SSW 21 33 30.12 1020 10 16 0.00 0.00
11:53 am 11:53 Mostly Sunny 40 4.4 30 -1.1 68 68 SSW 21 33 30.10 1019 10 16 0.00 0.00
12:53 pm 12:53 Sunny 40 4.4 30 -1.1 68 68 SW 21 33 30.09 1019 10 16 0.00 0.00
1:53 pm 13:53 Sunny 40 4.4 30 -1.1 68 68 SW 17 28 30.08 1019 10 16 0.00 0.00
2:53 pm 14:53 Sunny 42 5.6 30 -1.1 62 62 SW 18 30 30.07 1018 10 16 0.00 0.00
3:53 pm 15:53 Sunny 42 5.6 30 -1.1 62 62 SW 17 28 30.07 1018 10 16 0.00 0.00
4:53 pm 16:53 Clear 41 5 30 -1.1 65 65 SW 20 31 30.08 1019 10 16 0.00 0.00
5:53 pm 17:53 Clear 41 5 30 -1.1 65 65 SW 22 35 30.07 1018 10 16 0.00 0.00
6:53 pm 18:53 Clear 38 3.3 30 -1.1 73 73 SSW 13 20 30.07 1018 10 16 0.00 0.00
7:53 pm 19:53 Clear 39 3.9 31 -0.6 73 73 SSW 16 26 30.06 1018 10 16 0.00 0.00
8:53 pm 20:53 Clear 40 4.4 31 -0.6 70 70 SW 17 28 30.04 1017 10 16 0.00 0.00
9:53 pm 21:53 Clear 39 3.9 31 -0.6 73 73 SSW 17 28 30.03 1017 10 16 0.00 0.00
10:53 pm 22:53 Clear 40 4.4 31 -0.6 70 70 SW 21 33 30.01 1016 10 16 0.00 0.00
11:53 pm 23:53 Cloudy 40 4.4 31 -0.6 70 70 SW 22 35 30.00 1016 10 16 0.00 0.00

Powered by AerisWeather